Regional Weather Roundup
Issued by NWS

Home | Current Version | Previous Version | Graphics & Text | Print | Product List | Glossary On
Versions: 1 2 3 4 5 6 7 8 9 10 11 12 13 14 15 16 17 18 19 20 21 22 23 24 25 26 27 28 29 30 31 32 33 34 35 36 37 38 39 40 41 42 43 44 45 46 47 48 49 50
000
ASUS43 KIND 201309
RWRIN

WEATHER ROUNDUP FOR INDIANA
NATIONAL WEATHER SERVICE INDIANAPOLIS IN
900 AM EDT SUN AUG 20 2017

NOTE: "FAIR" INDICATES FEW OR NO CLOUDS BELOW 12,000 FEET WITH NO
SIGNIFICANT WEATHER AND/OR OBSTRUCTIONS TO VISIBILITY.

* - STATION DOES NOT REPORT WEATHER SUCH AS PRECIPITATION OR FOG.

+ - STATION NOT QUALITY CONTROLLED BY THE NATIONAL WEATHER SERVICE.
    USE DATA WITH CAUTION...ESPECIALLY DEWPOINT AND RELATIVE
    HUMIDITY OBSERVATIONS.

INZ001>003-010>013-019-020-201400-
NORTHWEST INDIANA

CITY           SKY/WX    TMP DP  RH WIND       PRES   REMARKS
GARY /AIRPORT/ MOSUNNY   70  61  73 VRB5      30.05S
KNOX *+        SUNNY     64  61  88 E3        30.06S
LA PORTE +     SUNNY     65  61  87 CALM      30.07F
MICHIGAN CITY+ SUNNY     68  63  83 CALM      30.06F
MONTICELLO +   SUNNY     68  63  84 E5        30.05S
RENSSELAER +   SUNNY     66  61  82 E3        30.06S
VALPARAISO     SUNNY     67  63  87 E5        30.06S

$$

LMZ046-743>745-201400-
SOUTHERN LAKE MICHIGAN

STATION/POSITION TIME  TEMP    WIND        PRES    WAVE
                       AIR SEA DIR/SP/G            HT
                 (UTC) (F)     (DEG/KT/KT) (MB)    (FT)
BURNS HARBOR     1240   72     160/  8/ 13 1017.6S
MICHIGAN CITY    1240   68     130/  8/  9   N/A
5NW MICH CITY    1300   70 74  160/ 10/ 12   N/A     1

$$

INZ004-005-014>016-021>024-201400-
NORTH CENTRAL INDIANA

CITY           SKY/WX    TMP DP  RH WIND       PRES   REMARKS
GOSHEN         SUNNY     68  61  78 CALM      30.09R
LOGANSPORT +   MOSUNNY   66  63  88 E5        30.07S
PERU/GRISSOM   SUNNY     69  63  81 SE6       30.06R
ROCHESTER +    SUNNY     68  63  83 CALM      30.07S
SOUTH BEND     SUNNY     67  62  84 E6        30.07F
WARSAW +       SUNNY     64  63  94 CALM      30.09R

$$

INZ006>009-017-018-025>027-201400-
NORTHEAST INDIANA

CITY           SKY/WX    TMP DP  RH WIND       PRES   REMARKS
AUBURN +       SUNNY     68  63  83 CALM      30.10S
FORT WAYNE     MOSUNNY   68  62  81 CALM      30.09R
HUNTINGTON +   SUNNY     67  64  90 CALM      30.09S

$$

INZ028-029-035-036-043>045-051>053-201400-
WEST CENTRAL INDIANA

CITY           SKY/WX    TMP DP  RH WIND       PRES   REMARKS
GREENCASTLE +  SUNNY     68  64  88 S3        30.08R
LAFAYETTE      SUNNY     69  64  84 E5        30.04S
TERRE HAUTE    SUNNY     72  68  87 CALM      30.06R

$$

INZ030>032-037>040-046>048-054>057-064-065-201400-
CENTRAL INDIANA

CITY           SKY/WX    TMP DP  RH WIND       PRES   REMARKS
CP ATTERBURY + SUNNY     70  68  94 CALM      30.08R
FRANKFORT +    CLOUDY    71  66  85 SE3       30.07S
GREENWOOD *+   SUNNY     72  66  83 S5        30.07R
INDIANAPOLIS   MOSUNNY   72  66  81 CALM      30.06R
-EAGLE CREEK   SUNNY     72  65  78 CALM      30.06R
KOKOMO +       SUNNY     68  63  84 CALM      30.08R
MARION +       SUNNY     68  63  83 CALM      30.09R
MT COMFORT *+  SUNNY     68  64  88 CALM      30.07S
SHELBYVILLE    SUNNY     72  66  81 SE3       30.07R
ZIONSVILLE +   SUNNY     69  65  86 SE3       30.08R

$$

INZ033-034-041-042-049-050-058-059-201400-
EAST CENTRAL INDIANA

CITY           SKY/WX    TMP DP  RH WIND       PRES   REMARKS
MUNCIE         SUNNY     74  62  66 SE6       30.08R
RICHMOND +     MOSUNNY   70  64  83 SE6       30.10S FOG

$$

INZ060-061-067>069-081>083-085>088-201400-
SOUTHWEST INDIANA

CITY           SKY/WX    TMP DP  RH WIND       PRES   REMARKS
EVANSVILLE     CLOUDY    74  70  87 E5        30.06F
HUNTINGBURG +  PTSUNNY   74  71  91 MISG      30.06S
WASHINGTON +   CLOUDY    71  69  93 MISG      30.06R

$$

INZ062-063-066-070>080-084-089>092-201400-
SOUTH CENTRAL AND SOUTHEAST INDIANA

CITY           SKY/WX    TMP DP  RH WIND       PRES   REMARKS
BEDFORD +      SUNNY     73  68  83 S3        30.07R
BLOOMINGTON    SUNNY     70  68  93 CALM      30.08R
MADISON *+     SUNNY     73  70  88 CALM      30.11R
NORTH VERNON + SUNNY     72  68  88 CALM      30.08R
SEYMOUR +      SUNNY     73  68  83 S3        30.07R

$$




USA.gov is the U.S. government's official web portal to all federal, state and local government web resources and services.